Year,Month,Day,Hour,Minute,Value (Times are PST for windspeed in km/hr)
2022,01,07,00,00,0.00
2022,01,07,00,01,0.00
2022,01,07,00,02,0.00
2022,01,07,00,03,0.00
2022,01,07,00,04,0.00
2022,01,07,00,05,0.00
2022,01,07,00,06,0.00
2022,01,07,00,07,0.00
2022,01,07,00,08,0.00
2022,01,07,00,09,0.00
2022,01,07,00,10,0.00
2022,01,07,00,11,0.00
2022,01,07,00,12,0.00
2022,01,07,00,13,0.00
2022,01,07,00,14,0.00
2022,01,07,00,15,0.00
2022,01,07,00,16,0.00
2022,01,07,00,17,0.00
2022,01,07,00,18,0.00
2022,01,07,00,19,0.00
2022,01,07,00,20,0.00
2022,01,07,00,21,0.00
2022,01,07,00,22,0.00
2022,01,07,00,23,0.00
2022,01,07,00,24,0.00
2022,01,07,00,25,0.00
2022,01,07,00,26,0.00
2022,01,07,00,27,0.00
2022,01,07,00,28,0.00
2022,01,07,00,29,0.00
2022,01,07,00,30,0.00
2022,01,07,00,31,0.00
2022,01,07,00,32,0.00
2022,01,07,00,33,0.00
2022,01,07,00,34,0.00
2022,01,07,00,35,0.00
2022,01,07,00,36,0.00
2022,01,07,00,37,0.00
2022,01,07,00,38,0.00
2022,01,07,00,39,0.00
2022,01,07,00,40,0.00
2022,01,07,00,41,0.00
2022,01,07,00,42,0.00
2022,01,07,00,43,0.00
2022,01,07,00,44,0.00
2022,01,07,00,45,0.00
2022,01,07,00,46,0.00
2022,01,07,00,47,0.00
2022,01,07,00,48,0.00
2022,01,07,00,49,0.00
2022,01,07,00,50,0.00
2022,01,07,00,51,0.00
2022,01,07,00,52,0.00
2022,01,07,00,53,0.00
2022,01,07,00,54,0.00
2022,01,07,00,55,0.00
2022,01,07,00,56,0.00
2022,01,07,00,57,0.00
2022,01,07,00,58,0.00
2022,01,07,00,59,0.00
2022,01,07,01,00,0.00
2022,01,07,01,01,0.00
2022,01,07,01,02,0.00
2022,01,07,01,03,0.00
2022,01,07,01,04,0.00
2022,01,07,01,05,0.00
2022,01,07,01,06,0.00
2022,01,07,01,07,0.00
2022,01,07,01,08,0.00
2022,01,07,01,09,0.00
2022,01,07,01,10,0.00
2022,01,07,01,11,0.00
2022,01,07,01,12,0.00
2022,01,07,01,13,0.00
2022,01,07,01,14,0.00
2022,01,07,01,15,0.00
2022,01,07,01,16,0.00
2022,01,07,01,17,0.00
2022,01,07,01,18,0.00
2022,01,07,01,19,0.00
2022,01,07,01,20,0.00
2022,01,07,01,21,0.00
2022,01,07,01,22,0.00
2022,01,07,01,23,0.00
2022,01,07,01,24,0.00
2022,01,07,01,25,0.00
2022,01,07,01,26,0.00
2022,01,07,01,27,0.00
2022,01,07,01,28,0.00
2022,01,07,01,29,0.00
2022,01,07,01,30,0.00
2022,01,07,01,31,0.00
2022,01,07,01,32,0.00
2022,01,07,01,33,0.00
2022,01,07,01,34,0.00
2022,01,07,01,35,0.00
2022,01,07,01,36,0.00
2022,01,07,01,37,0.00
2022,01,07,01,38,0.00
2022,01,07,01,39,0.00
2022,01,07,01,40,0.00
2022,01,07,01,41,0.00
2022,01,07,01,42,0.00
2022,01,07,01,43,0.00
2022,01,07,01,44,0.00
2022,01,07,01,45,0.00
2022,01,07,01,46,0.00
2022,01,07,01,47,0.00
2022,01,07,01,48,0.00
2022,01,07,01,49,8.50
2022,01,07,01,50,0.80
2022,01,07,01,51,0.00
2022,01,07,01,52,0.00
2022,01,07,01,53,0.00
2022,01,07,01,54,0.00
2022,01,07,01,55,0.00
2022,01,07,01,56,0.00
2022,01,07,01,57,0.00
2022,01,07,01,58,0.00
2022,01,07,01,59,0.00
2022,01,07,02,00,0.00
2022,01,07,02,01,0.00
2022,01,07,02,02,0.00
2022,01,07,02,03,0.00
2022,01,07,02,04,0.00
2022,01,07,02,05,0.00
2022,01,07,02,06,0.00
2022,01,07,02,07,0.00
2022,01,07,02,08,0.00
2022,01,07,02,09,0.00
2022,01,07,02,10,0.00
2022,01,07,02,11,0.00
2022,01,07,02,12,0.00
2022,01,07,02,13,0.00
2022,01,07,02,14,0.00
2022,01,07,02,15,0.00
2022,01,07,02,16,0.00
2022,01,07,02,17,0.00
2022,01,07,02,18,0.00
2022,01,07,02,19,0.00
2022,01,07,02,20,0.00
2022,01,07,02,21,0.00
2022,01,07,02,22,0.00
2022,01,07,02,23,0.00
2022,01,07,02,24,0.00
2022,01,07,02,25,0.00
2022,01,07,02,26,0.00
2022,01,07,02,27,0.00
2022,01,07,02,28,0.00
2022,01,07,02,29,0.00
2022,01,07,02,30,0.00
2022,01,07,02,31,0.00
2022,01,07,02,32,0.00
2022,01,07,02,33,0.00
2022,01,07,02,34,0.00
2022,01,07,02,35,0.00
2022,01,07,02,36,0.00
2022,01,07,02,37,0.00
2022,01,07,02,38,0.00
2022,01,07,02,39,0.00
2022,01,07,02,40,0.00
2022,01,07,02,41,0.00
2022,01,07,02,42,0.00
2022,01,07,02,43,0.00
2022,01,07,02,44,0.00
2022,01,07,02,45,0.00
2022,01,07,02,46,0.00
2022,01,07,02,47,0.00
2022,01,07,02,48,0.00
2022,01,07,02,49,0.00
2022,01,07,02,50,0.00
2022,01,07,02,51,0.00
2022,01,07,02,52,0.00
2022,01,07,02,53,0.00
2022,01,07,02,54,0.00
2022,01,07,02,55,0.00
2022,01,07,02,56,0.00
2022,01,07,02,57,0.00
2022,01,07,02,58,0.00
2022,01,07,02,59,0.00
2022,01,07,03,00,0.00
2022,01,07,03,01,0.00
2022,01,07,03,02,0.00
2022,01,07,03,03,0.00
2022,01,07,03,04,0.00
2022,01,07,03,05,0.00
2022,01,07,03,06,0.00
2022,01,07,03,07,0.00
2022,01,07,03,08,0.00
2022,01,07,03,09,0.00
2022,01,07,03,10,0.00
2022,01,07,03,11,0.00
2022,01,07,03,12,0.00
2022,01,07,03,13,0.00
2022,01,07,03,14,0.00
2022,01,07,03,15,0.00
2022,01,07,03,16,0.00
2022,01,07,03,17,0.00
2022,01,07,03,18,0.00
2022,01,07,03,19,0.00
2022,01,07,03,20,0.00
2022,01,07,03,21,0.00
2022,01,07,03,22,0.00
2022,01,07,03,23,0.00
2022,01,07,03,24,0.00
2022,01,07,03,25,0.00
2022,01,07,03,26,0.00
2022,01,07,03,27,0.00
2022,01,07,03,28,0.00
2022,01,07,03,29,0.00
2022,01,07,03,30,0.00
2022,01,07,03,31,0.00
2022,01,07,03,32,0.00
2022,01,07,03,33,0.00
2022,01,07,03,34,0.00
2022,01,07,03,35,0.00
2022,01,07,03,36,0.00
2022,01,07,03,37,0.00
2022,01,07,03,38,0.00
2022,01,07,03,39,0.00
2022,01,07,03,40,0.00
2022,01,07,03,41,0.00
2022,01,07,03,42,0.00
2022,01,07,03,43,0.00
2022,01,07,03,44,0.00
2022,01,07,03,45,0.00
2022,01,07,03,46,0.00
2022,01,07,03,47,0.00
2022,01,07,03,48,0.00
2022,01,07,03,49,0.00
2022,01,07,03,50,0.00
2022,01,07,03,51,0.00
2022,01,07,03,52,0.00
2022,01,07,03,53,0.00
2022,01,07,03,54,0.00
2022,01,07,03,55,0.00
2022,01,07,03,56,0.00
2022,01,07,03,57,0.30
2022,01,07,03,58,0.00
2022,01,07,03,59,0.00
2022,01,07,04,00,0.50
2022,01,07,04,01,0.10
2022,01,07,04,02,0.00
2022,01,07,04,03,0.50
2022,01,07,04,04,1.50
2022,01,07,04,05,0.30
2022,01,07,04,06,0.60
2022,01,07,04,07,0.80
2022,01,07,04,08,3.80
2022,01,07,04,09,1.20
2022,01,07,04,10,1.30
2022,01,07,04,11,5.70
2022,01,07,04,12,7.60
2022,01,07,04,13,1.30
2022,01,07,04,14,2.10
2022,01,07,04,15,1.60
2022,01,07,04,16,2.80
2022,01,07,04,17,2.40
2022,01,07,04,18,1.00
2022,01,07,04,19,3.70
2022,01,07,04,20,2.20
2022,01,07,04,21,5.50
2022,01,07,04,22,6.20
2022,01,07,04,23,3.50
2022,01,07,04,24,6.00
2022,01,07,04,25,0.00
2022,01,07,04,26,2.00
2022,01,07,04,27,0.70
2022,01,07,04,28,4.40
2022,01,07,04,29,3.70
2022,01,07,04,30,2.10
2022,01,07,04,31,1.40
2022,01,07,04,32,2.10
2022,01,07,04,33,1.60
2022,01,07,04,34,2.70
2022,01,07,04,35,2.60
2022,01,07,04,36,0.00
2022,01,07,04,37,0.00
2022,01,07,04,38,0.00
2022,01,07,04,39,0.00
2022,01,07,04,40,0.00
2022,01,07,04,41,0.00
2022,01,07,04,42,0.00
2022,01,07,04,43,0.00
2022,01,07,04,44,0.00
2022,01,07,04,45,1.90
2022,01,07,04,46,1.40
2022,01,07,04,47,0.00
2022,01,07,04,48,0.00
2022,01,07,04,49,0.00
2022,01,07,04,50,0.00
2022,01,07,04,51,1.20
2022,01,07,04,52,0.80
2022,01,07,04,53,0.10
2022,01,07,04,54,1.50
2022,01,07,04,55,1.80
2022,01,07,04,56,0.20
2022,01,07,04,57,0.00
2022,01,07,04,58,0.00
2022,01,07,04,59,0.00
2022,01,07,05,00,0.00
2022,01,07,05,01,0.10
2022,01,07,05,02,1.00
2022,01,07,05,03,0.00
2022,01,07,05,04,0.10
2022,01,07,05,05,0.20
2022,01,07,05,06,0.00
2022,01,07,05,07,0.00
2022,01,07,05,08,0.70
2022,01,07,05,09,1.30
2022,01,07,05,10,1.90
2022,01,07,05,11,0.00
2022,01,07,05,12,0.20
2022,01,07,05,13,0.50
2022,01,07,05,14,2.00
2022,01,07,05,15,0.00
2022,01,07,05,16,0.00
2022,01,07,05,17,0.40
2022,01,07,05,18,0.30
2022,01,07,05,19,0.00
2022,01,07,05,20,0.40
2022,01,07,05,21,0.00
2022,01,07,05,22,2.70
2022,01,07,05,23,4.20
2022,01,07,05,24,1.40
2022,01,07,05,25,0.60
2022,01,07,05,26,0.00
2022,01,07,05,27,0.30
2022,01,07,05,28,0.00
2022,01,07,05,29,0.80
2022,01,07,05,30,0.00
2022,01,07,05,31,0.00
2022,01,07,05,32,2.60
2022,01,07,05,33,6.80
2022,01,07,05,34,0.50
2022,01,07,05,35,2.70
2022,01,07,05,36,0.70
2022,01,07,05,37,3.40
2022,01,07,05,38,2.20
2022,01,07,05,39,5.00
2022,01,07,05,40,6.30
2022,01,07,05,41,2.50
2022,01,07,05,42,5.00
2022,01,07,05,43,0.10
2022,01,07,05,44,3.30
2022,01,07,05,45,2.70
2022,01,07,05,46,0.60
2022,01,07,05,47,1.60
2022,01,07,05,48,3.10
2022,01,07,05,49,0.60
2022,01,07,05,50,2.40
2022,01,07,05,51,8.60
2022,01,07,05,52,7.20
2022,01,07,05,53,5.00
2022,01,07,05,54,9.80
2022,01,07,05,55,8.70
2022,01,07,05,56,8.00
2022,01,07,05,57,2.80
2022,01,07,05,58,12.20
2022,01,07,05,59,9.60
2022,01,07,06,00,6.40
2022,01,07,06,01,3.60
2022,01,07,06,02,3.10
2022,01,07,06,03,8.60
2022,01,07,06,04,11.50
2022,01,07,06,05,3.90
2022,01,07,06,06,5.70
2022,01,07,06,07,9.20
2022,01,07,06,08,2.80
2022,01,07,06,09,3.80
2022,01,07,06,10,13.60
2022,01,07,06,11,9.40
2022,01,07,06,12,13.40
2022,01,07,06,13,5.00
2022,01,07,06,14,9.80
2022,01,07,06,15,13.10
2022,01,07,06,16,9.90
2022,01,07,06,17,9.70
2022,01,07,06,18,11.80
2022,01,07,06,19,17.00
2022,01,07,06,20,11.10
2022,01,07,06,21,13.30
2022,01,07,06,22,8.20
2022,01,07,06,23,10.90
2022,01,07,06,24,8.50
2022,01,07,06,25,9.20
2022,01,07,06,26,7.90
2022,01,07,06,27,10.10
2022,01,07,06,28,5.60
2022,01,07,06,29,7.90
2022,01,07,06,30,7.40
2022,01,07,06,31,1.10
2022,01,07,06,32,8.30
2022,01,07,06,33,8.10
2022,01,07,06,34,5.10
2022,01,07,06,35,12.60
2022,01,07,06,36,4.20
2022,01,07,06,37,12.50
2022,01,07,06,38,11.30
2022,01,07,06,39,5.00
2022,01,07,06,40,6.40
2022,01,07,06,41,13.00
2022,01,07,06,42,13.40
2022,01,07,06,43,13.10
2022,01,07,06,44,8.80
2022,01,07,06,45,11.10
2022,01,07,06,46,9.50
2022,01,07,06,47,12.30
2022,01,07,06,48,12.90
2022,01,07,06,49,9.90
2022,01,07,06,50,7.60
2022,01,07,06,51,6.30
2022,01,07,06,52,10.60
2022,01,07,06,53,7.80
2022,01,07,06,54,11.00
2022,01,07,06,55,10.80
2022,01,07,06,56,11.70
2022,01,07,06,57,7.00
2022,01,07,06,58,7.80
2022,01,07,06,59,5.90
2022,01,07,07,00,7.80
2022,01,07,07,01,12.60
2022,01,07,07,02,9.00
2022,01,07,07,03,7.80
2022,01,07,07,04,11.40
2022,01,07,07,05,10.00
2022,01,07,07,06,8.90
2022,01,07,07,07,4.70
2022,01,07,07,08,11.70
2022,01,07,07,09,7.00
2022,01,07,07,10,10.70
2022,01,07,07,11,11.40
2022,01,07,07,12,12.20
2022,01,07,07,13,11.70
2022,01,07,07,14,10.40
2022,01,07,07,15,7.70
2022,01,07,07,16,7.80
2022,01,07,07,17,9.50
2022,01,07,07,18,10.00
2022,01,07,07,19,5.60
2022,01,07,07,20,9.20
2022,01,07,07,21,7.10
2022,01,07,07,22,6.60
2022,01,07,07,23,1.40
2022,01,07,07,24,3.60
2022,01,07,07,25,7.80
2022,01,07,07,26,9.30
2022,01,07,07,27,9.50
2022,01,07,07,28,14.60
2022,01,07,07,29,10.50
2022,01,07,07,30,9.90
2022,01,07,07,31,10.10
2022,01,07,07,32,10.80
2022,01,07,07,33,7.20
2022,01,07,07,34,7.40
2022,01,07,07,35,9.80
2022,01,07,07,36,8.30
2022,01,07,07,37,5.00
2022,01,07,07,38,8.10
2022,01,07,07,39,7.20
2022,01,07,07,40,11.30
2022,01,07,07,41,6.00
2022,01,07,07,42,5.20
2022,01,07,07,43,4.10
2022,01,07,07,44,5.10
2022,01,07,07,45,10.60
2022,01,07,07,46,8.30
2022,01,07,07,47,8.60
2022,01,07,07,48,5.30
2022,01,07,07,49,8.50
2022,01,07,07,50,2.80
2022,01,07,07,51,7.40
2022,01,07,07,52,10.00
2022,01,07,07,53,8.30
2022,01,07,07,54,1.30
2022,01,07,07,55,7.20
2022,01,07,07,56,4.60
2022,01,07,07,57,3.90
2022,01,07,07,58,6.00
2022,01,07,07,59,7.60
2022,01,07,08,00,5.70
2022,01,07,08,01,9.10
2022,01,07,08,02,5.00
2022,01,07,08,03,5.10
2022,01,07,08,04,6.20
2022,01,07,08,05,2.60
2022,01,07,08,06,6.50
2022,01,07,08,07,5.40
2022,01,07,08,08,10.60
2022,01,07,08,09,7.90
2022,01,07,08,10,8.80
2022,01,07,08,11,7.00
2022,01,07,08,12,4.70
2022,01,07,08,13,11.70
2022,01,07,08,14,10.30
2022,01,07,08,15,4.70
2022,01,07,08,16,5.60
2022,01,07,08,17,9.80
2022,01,07,08,18,7.00
2022,01,07,08,19,3.50
2022,01,07,08,20,7.10
2022,01,07,08,21,9.60
2022,01,07,08,22,3.20
2022,01,07,08,23,8.20
2022,01,07,08,24,8.80
2022,01,07,08,25,2.50
2022,01,07,08,26,8.40
2022,01,07,08,27,8.90
2022,01,07,08,28,7.20
2022,01,07,08,29,9.10
2022,01,07,08,30,7.70
2022,01,07,08,31,9.80
2022,01,07,08,32,10.80
2022,01,07,08,33,16.60
2022,01,07,08,34,5.90
2022,01,07,08,35,6.70
2022,01,07,08,36,11.80
2022,01,07,08,37,9.40
2022,01,07,08,38,12.80
2022,01,07,08,39,17.40
2022,01,07,08,40,15.90
2022,01,07,08,41,8.10
2022,01,07,08,42,16.30
2022,01,07,08,43,17.90
2022,01,07,08,44,16.40
2022,01,07,08,45,13.90
2022,01,07,08,46,12.50
2022,01,07,08,47,15.10
2022,01,07,08,48,16.70
2022,01,07,08,49,16.30
2022,01,07,08,50,17.30
2022,01,07,08,51,13.60
2022,01,07,08,52,9.70
2022,01,07,08,53,11.70
2022,01,07,08,54,8.90
2022,01,07,08,55,15.30
2022,01,07,08,56,13.60
2022,01,07,08,57,10.10
2022,01,07,08,58,11.00
2022,01,07,08,59,14.30
2022,01,07,09,00,12.40
2022,01,07,09,01,20.00
2022,01,07,09,02,17.10
2022,01,07,09,03,20.60
2022,01,07,09,04,12.70
2022,01,07,09,05,10.80
2022,01,07,09,06,15.10
2022,01,07,09,07,13.50
2022,01,07,09,08,15.20
2022,01,07,09,09,12.00
2022,01,07,09,10,15.90
2022,01,07,09,11,11.00
2022,01,07,09,12,23.20
2022,01,07,09,13,16.20
2022,01,07,09,14,7.60
2022,01,07,09,15,16.00
2022,01,07,09,16,14.00
2022,01,07,09,17,17.80
2022,01,07,09,18,9.00
2022,01,07,09,19,15.10
2022,01,07,09,20,5.80
2022,01,07,09,21,14.70
2022,01,07,09,22,16.50
2022,01,07,09,23,19.40
2022,01,07,09,24,15.60
2022,01,07,09,25,15.20
2022,01,07,09,26,16.20
2022,01,07,09,27,21.10
2022,01,07,09,28,12.60
2022,01,07,09,29,20.40
2022,01,07,09,30,19.10
2022,01,07,09,31,13.40
2022,01,07,09,32,18.60
2022,01,07,09,33,21.50
2022,01,07,09,34,16.40
2022,01,07,09,35,25.40
2022,01,07,09,36,17.90
2022,01,07,09,37,12.20
2022,01,07,09,38,18.20
2022,01,07,09,39,21.00
2022,01,07,09,40,21.70
2022,01,07,09,41,20.70
2022,01,07,09,42,17.60
2022,01,07,09,43,16.30
2022,01,07,09,44,23.40
2022,01,07,09,45,16.90
2022,01,07,09,46,21.70
2022,01,07,09,47,11.50
2022,01,07,09,48,14.90
2022,01,07,09,49,17.80
2022,01,07,09,50,14.50
2022,01,07,09,51,12.10
2022,01,07,09,52,12.70
2022,01,07,09,53,19.90
2022,01,07,09,54,11.80
2022,01,07,09,55,8.00
2022,01,07,09,56,12.40
2022,01,07,09,57,12.60
2022,01,07,09,58,15.40
2022,01,07,09,59,22.80
2022,01,07,10,00,11.10
2022,01,07,10,01,8.40
2022,01,07,10,02,14.40
2022,01,07,10,03,22.80
2022,01,07,10,04,19.20
2022,01,07,10,05,24.70
2022,01,07,10,06,16.30
2022,01,07,10,07,14.10
2022,01,07,10,08,19.60
2022,01,07,10,09,22.20
2022,01,07,10,10,19.40
2022,01,07,10,11,18.00
2022,01,07,10,12,15.80
2022,01,07,10,13,22.10
2022,01,07,10,14,16.70
2022,01,07,10,15,13.80
2022,01,07,10,16,26.60
2022,01,07,10,17,11.80
2022,01,07,10,18,11.10
2022,01,07,10,19,28.00
2022,01,07,10,20,19.10
2022,01,07,10,21,24.90
2022,01,07,10,22,18.70
2022,01,07,10,23,24.40
2022,01,07,10,24,18.70
2022,01,07,10,25,18.40
2022,01,07,10,26,10.80
2022,01,07,10,27,14.80
2022,01,07,10,28,11.40
2022,01,07,10,29,17.30
2022,01,07,10,30,13.10
2022,01,07,10,31,14.00
2022,01,07,10,32,19.20
2022,01,07,10,33,9.30
2022,01,07,10,34,13.30
2022,01,07,10,35,21.40
2022,01,07,10,36,10.20
2022,01,07,10,37,13.00
2022,01,07,10,38,16.70
2022,01,07,10,39,24.60
2022,01,07,10,40,22.10
2022,01,07,10,41,16.40
2022,01,07,10,42,19.70
2022,01,07,10,43,27.40
2022,01,07,10,44,25.40
2022,01,07,10,45,23.20
2022,01,07,10,46,24.60
2022,01,07,10,47,18.40
2022,01,07,10,48,23.20
2022,01,07,10,49,19.80
2022,01,07,10,50,20.70
2022,01,07,10,51,10.50
2022,01,07,10,52,21.00
2022,01,07,10,53,18.10
2022,01,07,10,54,18.30
2022,01,07,10,55,18.40
2022,01,07,10,56,13.10
2022,01,07,10,57,19.70
2022,01,07,10,58,14.40
2022,01,07,10,59,14.10
2022,01,07,11,00,21.20
2022,01,07,11,01,24.00
2022,01,07,11,02,25.70
2022,01,07,11,03,18.90
2022,01,07,11,04,12.80
2022,01,07,11,05,24.10
2022,01,07,11,06,18.60
2022,01,07,11,07,16.00
2022,01,07,11,08,22.90
2022,01,07,11,09,16.50
2022,01,07,11,10,18.80
2022,01,07,11,11,12.50
2022,01,07,11,12,21.70
2022,01,07,11,13,16.70
2022,01,07,11,14,8.40
2022,01,07,11,15,18.90
2022,01,07,11,16,16.40
2022,01,07,11,17,29.80
2022,01,07,11,18,18.60
2022,01,07,11,19,22.40
2022,01,07,11,20,17.90
2022,01,07,11,21,16.30
2022,01,07,11,22,23.50
2022,01,07,11,23,20.80
2022,01,07,11,24,17.90
2022,01,07,11,25,16.10
2022,01,07,11,26,20.40
2022,01,07,11,27,24.20
2022,01,07,11,28,28.60
2022,01,07,11,29,25.10
2022,01,07,11,30,21.90
2022,01,07,11,31,26.80
2022,01,07,11,32,28.60
2022,01,07,11,33,21.80
2022,01,07,11,34,27.50
2022,01,07,11,35,16.60
2022,01,07,11,36,22.20
2022,01,07,11,37,20.90
2022,01,07,11,38,20.80
2022,01,07,11,39,19.40
2022,01,07,11,40,24.80
2022,01,07,11,41,22.90
2022,01,07,11,42,20.00
2022,01,07,11,43,21.40
2022,01,07,11,44,25.00
2022,01,07,11,45,32.30
2022,01,07,11,46,19.50
2022,01,07,11,47,15.50
2022,01,07,11,48,24.90
2022,01,07,11,49,24.10
2022,01,07,11,50,25.10
2022,01,07,11,51,25.80
2022,01,07,11,52,20.90
2022,01,07,11,53,25.50
2022,01,07,11,54,18.80
2022,01,07,11,55,28.60
2022,01,07,11,56,20.10
2022,01,07,11,57,26.80
2022,01,07,11,58,30.00
2022,01,07,11,59,19.80
2022,01,07,12,00,25.70
2022,01,07,12,01,24.40
2022,01,07,12,02,26.60
2022,01,07,12,03,26.40
2022,01,07,12,04,32.80
2022,01,07,12,05,26.00
2022,01,07,12,06,30.70
2022,01,07,12,07,34.30
2022,01,07,12,08,27.00
2022,01,07,12,09,30.10
2022,01,07,12,10,29.70
2022,01,07,12,11,32.30
2022,01,07,12,12,22.80
2022,01,07,12,13,22.90
2022,01,07,12,14,36.80
2022,01,07,12,15,32.10
2022,01,07,12,16,27.40
2022,01,07,12,17,28.70
2022,01,07,12,18,30.90
2022,01,07,12,19,27.10
2022,01,07,12,20,24.10
2022,01,07,12,21,32.80
2022,01,07,12,22,31.50
2022,01,07,12,23,24.90
2022,01,07,12,24,26.10
2022,01,07,12,25,25.90
2022,01,07,12,26,25.60
2022,01,07,12,27,45.90
2022,01,07,12,28,26.60
2022,01,07,12,29,15.60
2022,01,07,12,30,20.40
2022,01,07,12,31,28.10
2022,01,07,12,32,20.20
2022,01,07,12,33,28.70
2022,01,07,12,34,27.00
2022,01,07,12,35,21.60
2022,01,07,12,36,28.80
2022,01,07,12,37,29.90
2022,01,07,12,38,17.40
2022,01,07,12,39,24.30
2022,01,07,12,40,31.00
2022,01,07,12,41,25.40
2022,01,07,12,42,27.80
2022,01,07,12,43,30.30
2022,01,07,12,44,24.50
2022,01,07,12,45,26.40
2022,01,07,12,46,22.30
2022,01,07,12,47,27.00
2022,01,07,12,48,25.40
2022,01,07,12,49,31.10
2022,01,07,12,50,23.50
2022,01,07,12,51,31.10
2022,01,07,12,52,36.90
2022,01,07,12,53,35.20
2022,01,07,12,54,28.20
2022,01,07,12,55,19.60
2022,01,07,12,56,30.70
2022,01,07,12,57,18.90
2022,01,07,12,58,25.60
2022,01,07,12,59,15.50
2022,01,07,13,00,22.00
2022,01,07,13,01,22.80
2022,01,07,13,02,24.70
2022,01,07,13,03,22.00
2022,01,07,13,04,33.10
2022,01,07,13,05,30.70
2022,01,07,13,06,27.80
2022,01,07,13,07,15.30
2022,01,07,13,08,20.30
2022,01,07,13,09,19.30
2022,01,07,13,10,28.10
2022,01,07,13,11,23.10
2022,01,07,13,12,24.80
2022,01,07,13,13,20.70
2022,01,07,13,14,21.40
2022,01,07,13,15,18.40
2022,01,07,13,16,20.80
2022,01,07,13,17,20.80
2022,01,07,13,18,16.40
2022,01,07,13,19,18.20
2022,01,07,13,20,17.40
2022,01,07,13,21,18.70
2022,01,07,13,22,19.50
2022,01,07,13,23,17.40
2022,01,07,13,24,19.50
2022,01,07,13,25,26.00
2022,01,07,13,26,20.90
2022,01,07,13,27,17.00
2022,01,07,13,28,21.60
2022,01,07,13,29,21.00
2022,01,07,13,30,20.90
2022,01,07,13,31,18.80
2022,01,07,13,32,27.00
2022,01,07,13,33,21.40
2022,01,07,13,34,19.50
2022,01,07,13,35,21.10
2022,01,07,13,36,23.50
2022,01,07,13,37,20.40
2022,01,07,13,38,27.00
2022,01,07,13,39,25.30
2022,01,07,13,40,20.00
2022,01,07,13,41,19.30
2022,01,07,13,42,19.60
2022,01,07,13,43,23.30
2022,01,07,13,44,21.50
2022,01,07,13,45,29.60
2022,01,07,13,46,20.00
2022,01,07,13,47,24.50
2022,01,07,13,48,20.40
2022,01,07,13,49,15.30
2022,01,07,13,50,15.30
2022,01,07,13,51,25.30
2022,01,07,13,52,26.30
2022,01,07,13,53,23.20
2022,01,07,13,54,15.80
2022,01,07,13,55,20.00
2022,01,07,13,56,23.10
2022,01,07,13,57,25.80
2022,01,07,13,58,17.90
2022,01,07,13,59,17.10
2022,01,07,14,00,12.30
2022,01,07,14,01,18.10
2022,01,07,14,02,23.00
2022,01,07,14,03,13.00
2022,01,07,14,04,19.60
2022,01,07,14,05,14.20
2022,01,07,14,06,23.30
2022,01,07,14,07,26.60
2022,01,07,14,08,25.30
2022,01,07,14,09,18.30
2022,01,07,14,10,25.90
2022,01,07,14,11,18.30
2022,01,07,14,12,19.70
2022,01,07,14,13,14.60
2022,01,07,14,14,16.20
2022,01,07,14,15,17.60
2022,01,07,14,16,23.20
2022,01,07,14,17,19.00
2022,01,07,14,18,20.50
2022,01,07,14,19,18.50
2022,01,07,14,20,17.90
2022,01,07,14,21,17.10
2022,01,07,14,22,25.50
2022,01,07,14,23,18.10
2022,01,07,14,24,23.40
2022,01,07,14,25,23.10
2022,01,07,14,26,16.80
2022,01,07,14,27,18.80
2022,01,07,14,28,15.60
2022,01,07,14,29,26.00
2022,01,07,14,30,24.40
2022,01,07,14,31,20.40
2022,01,07,14,32,20.10
2022,01,07,14,33,16.70
2022,01,07,14,34,33.30
2022,01,07,14,35,17.80
2022,01,07,14,36,22.50
2022,01,07,14,37,19.90
2022,01,07,14,38,17.40
2022,01,07,14,39,19.20
2022,01,07,14,40,26.10
2022,01,07,14,41,12.30
2022,01,07,14,42,20.20
2022,01,07,14,43,21.70
2022,01,07,14,44,21.70
2022,01,07,14,45,21.50
2022,01,07,14,46,19.50
2022,01,07,14,47,18.90
2022,01,07,14,48,17.90
2022,01,07,14,49,20.60
2022,01,07,14,50,11.30
2022,01,07,14,51,15.40
2022,01,07,14,52,18.00
2022,01,07,14,53,15.70
2022,01,07,14,54,19.60
2022,01,07,14,55,23.10
2022,01,07,14,56,29.00
2022,01,07,14,57,16.80
2022,01,07,14,58,19.60
2022,01,07,14,59,25.20
2022,01,07,15,00,22.00
2022,01,07,15,01,18.00
2022,01,07,15,02,19.60
2022,01,07,15,03,20.80
2022,01,07,15,04,20.80
2022,01,07,15,05,25.20
2022,01,07,15,06,13.00
2022,01,07,15,07,26.60
2022,01,07,15,08,25.30
2022,01,07,15,09,23.90
2022,01,07,15,10,17.20
2022,01,07,15,11,13.80
2022,01,07,15,12,17.10
2022,01,07,15,13,18.00
2022,01,07,15,14,25.00
2022,01,07,15,15,18.90
2022,01,07,15,16,16.70
2022,01,07,15,17,21.00
2022,01,07,15,18,31.50
2022,01,07,15,19,16.50
2022,01,07,15,20,19.80
2022,01,07,15,21,20.00
2022,01,07,15,22,24.30
2022,01,07,15,23,26.30
2022,01,07,15,24,31.00
2022,01,07,15,25,26.70
2022,01,07,15,26,16.10
2022,01,07,15,27,14.70
2022,01,07,15,28,14.20
2022,01,07,15,29,18.80
2022,01,07,15,30,18.90
2022,01,07,15,31,12.60
2022,01,07,15,32,27.70
2022,01,07,15,33,16.30
2022,01,07,15,34,18.60
2022,01,07,15,35,24.90
2022,01,07,15,36,12.10
2022,01,07,15,37,20.40
2022,01,07,15,38,19.40
2022,01,07,15,39,15.80
2022,01,07,15,40,24.80
2022,01,07,15,41,22.30
2022,01,07,15,42,21.60
2022,01,07,15,43,14.40
2022,01,07,15,44,14.30
2022,01,07,15,45,17.50
2022,01,07,15,46,11.50
2022,01,07,15,47,17.20
2022,01,07,15,48,17.10
2022,01,07,15,49,16.30
2022,01,07,15,50,18.10
2022,01,07,15,51,13.80
2022,01,07,15,52,18.80
2022,01,07,15,53,23.40
2022,01,07,15,54,27.70
2022,01,07,15,55,28.40
2022,01,07,15,56,16.10
2022,01,07,15,57,14.70
2022,01,07,15,58,24.90
2022,01,07,15,59,22.40
2022,01,07,16,00,12.90
2022,01,07,16,01,12.20
2022,01,07,16,02,14.30
2022,01,07,16,03,20.10
2022,01,07,16,04,18.80
2022,01,07,16,05,16.90
2022,01,07,16,06,14.80
2022,01,07,16,07,19.10
2022,01,07,16,08,16.60
2022,01,07,16,09,20.10
2022,01,07,16,10,15.10
2022,01,07,16,11,7.50
2022,01,07,16,12,17.60
2022,01,07,16,13,19.20
2022,01,07,16,14,13.50
2022,01,07,16,15,18.90
2022,01,07,16,16,18.00
2022,01,07,16,17,16.50
2022,01,07,16,18,18.40
2022,01,07,16,19,14.30
2022,01,07,16,20,19.20
2022,01,07,16,21,20.20
2022,01,07,16,22,24.50
2022,01,07,16,23,28.10
2022,01,07,16,24,16.00
2022,01,07,16,25,7.60
2022,01,07,16,26,18.50
2022,01,07,16,27,8.60
2022,01,07,16,28,13.30
2022,01,07,16,29,15.10
2022,01,07,16,30,16.30
2022,01,07,16,31,14.20
2022,01,07,16,32,10.60
2022,01,07,16,33,9.00
2022,01,07,16,34,11.70
2022,01,07,16,35,15.10
2022,01,07,16,36,9.40
2022,01,07,16,37,8.60
2022,01,07,16,38,18.10
2022,01,07,16,39,13.00
2022,01,07,16,40,8.10
2022,01,07,16,41,13.00
2022,01,07,16,42,11.00
2022,01,07,16,43,15.40
2022,01,07,16,44,7.40
2022,01,07,16,45,8.00
2022,01,07,16,46,10.90
2022,01,07,16,47,8.90
2022,01,07,16,48,8.80
2022,01,07,16,49,14.20
2022,01,07,16,50,15.30
2022,01,07,16,51,5.70
2022,01,07,16,52,4.90
2022,01,07,16,53,15.20
2022,01,07,16,54,16.10
2022,01,07,16,55,11.30
2022,01,07,16,56,12.00
2022,01,07,16,57,5.60
2022,01,07,16,58,8.00
2022,01,07,16,59,12.40
2022,01,07,17,00,10.70
2022,01,07,17,01,3.60
2022,01,07,17,02,5.30
2022,01,07,17,03,6.80
2022,01,07,17,04,9.60
2022,01,07,17,05,13.10
2022,01,07,17,06,13.10
2022,01,07,17,07,10.50
2022,01,07,17,08,12.10
2022,01,07,17,09,11.50
2022,01,07,17,10,7.40
2022,01,07,17,11,7.70
2022,01,07,17,12,9.30
2022,01,07,17,13,11.30
2022,01,07,17,14,14.20
2022,01,07,17,15,15.40
2022,01,07,17,16,12.30
2022,01,07,17,17,14.20
2022,01,07,17,18,13.40
2022,01,07,17,19,7.50
2022,01,07,17,20,10.50
2022,01,07,17,21,13.70
2022,01,07,17,22,8.60
2022,01,07,17,23,6.90
2022,01,07,17,24,4.20
2022,01,07,17,25,9.20
2022,01,07,17,26,7.80
2022,01,07,17,27,9.00
2022,01,07,17,28,10.70
2022,01,07,17,29,9.70
2022,01,07,17,30,9.80
2022,01,07,17,31,12.20
2022,01,07,17,32,9.30
2022,01,07,17,33,9.20
2022,01,07,17,34,14.90
2022,01,07,17,35,13.60
2022,01,07,17,36,11.70
2022,01,07,17,37,13.50
2022,01,07,17,38,12.20
2022,01,07,17,39,12.00
2022,01,07,17,40,10.50
2022,01,07,17,41,13.10